Regional Weather Roundup
Issued by NWS

Home | Current Version | Previous Version | Graphics & Text | Print | Product List | Glossary On
Versions: 1 2 3 4 5 6 7 8 9 10 11 12 13 14 15 16 17 18 19 20 21 22 23 24 25 26 27 28 29 30 31 32 33 34 35 36 37 38 39 40 41 42 43 44 45 46 47 48 49 50
000
ASUS43 KLOT 190321
RWRIL

ILLINOIS REGIONAL WEATHER ROUNDUP
NATIONAL WEATHER SERVICE CHICAGO/ROMEOVILLE IL
1000 PM CDT SAT APR 18 2015

NOTE: "FAIR" INDICATES FEW OR NO CLOUDS BELOW 12,000 FEET WITH NO
SIGNIFICANT WEATHER AND/OR OBSTRUCTIONS TO VISIBILITY.

* THESE STATIONS ARE NOT UNDER NWS QUALITY CONTROL. THEY ALSO MAY NOT
  REPORT WEATHER SUCH AS PRECIPITATION OR FOG.

ILZ001-002-007-009-015-016-024-190400-
NORTHWEST ILLINOIS

CITY           SKY/WX    TMP DP  RH WIND       PRES   REMARKS
MOLINE         MOCLDY    63  46  54 E15       29.91S
STERLING*      MOCLDY    57  36  44 E14       29.95F
SAVANNA*       MOCLDY    61  38  42 E15       29.94S
$$

ILZ003-004-008-010-011-017-018-190400-
NORTH CENTRAL ILLINOIS

CITY           SKY/WX    TMP DP  RH WIND       PRES   REMARKS
ROCKFORD       MOCLDY    54  30  40 E13       30.01F
FREEPORT*      CLOUDY    55  33  42 E13       30.00S
ROCHELLE*      MOCLDY    56  36  47 NE14      29.99S
DE KALB*       CLOUDY    52  32  46 E14       30.00F
PERU*          MOCLDY    57  36  46 E16       29.97S
$$

ILZ005-006-012>014-019>023-190400-
NORTHEAST ILLINOIS

CITY           SKY/WX    TMP DP  RH WIND       PRES   REMARKS
CHICAGO-OHARE  MOCLDY    48  34  58 NE9       30.02F
CHICAGO-MIDWAY CLOUDY    51  35  54 N10       30.01F
AURORA         FAIR      54  31  41 NE15      29.99S
LANSING*       CLOUDY    46  36  68 NE5       30.02S
JOLIET*        CLOUDY    54  36  50 NE8       29.98F
WAUKEGAN       PTCLDY    46  33  60 N13G22    30.03F
DUPAGE AIRPORT PTCLDY    51  32  48 NE10      30.00F
KANKAKEE*      MOCLDY    48  38  68 NE5       29.99F
WHEELING       MOCLDY    47  34  60 VRB6      30.04S
MORRIS*        MOCLDY    53  35  51 NE6       29.96F
ROMEOVILLE*    CLOUDY    51  33  49 NE10      29.99F
NORTHERLY ISL    N/A     48  37  65 N8          N/A
$$

LMZ740>746-190400-
SOUTHERN LAKE MICHIGAN

STATION/POSITION SKY/WX   TEMP    WIND        PRES    VSBY  WAVE
                          AIR SEA DIR/SP/G                  HT/PER
                          (F)     (DEG/KT/KT) (MB)    (MI)  (FT/S)
HARRISON CRIB              44     340/ 11/ 12   N/A
BURNHAM HARBOR             48     360/  6/ 14   N/A
CALUMET HARBOR             44     330/ 11/ 13   N/A
BURNS HARBOR               42     330/  6/  9 1017.3R
MICHIGAN CITY              43      CALM  /  1   N/A
MICHIGAN CITY 6N           42 46   CALM  /  2   N/A           3/ 6
$$

ILZ025>027-034>036-040-047-049-050-058-095>099-190400-
WEST-CENTRAL ILLINOIS

CITY           SKY/WX    TMP DP  RH WIND       PRES   REMARKS
QUINCY         CLOUDY    64  56  75 NE3       29.87F
GALESBURG*     MOCLDY    67  49  52 SE3       29.90F
MACOMB*        MOCLDY    64  50  61 SE7       29.90F
JACKSONVILLE*  CLOUDY    68  54  61 E9        29.88F
PITTSFIELD*    CLOUDY    70  56  61 E6        29.88S
$$

ILZ028>032-037-038-041>044-048-051>054-059>061-190400-
CENTRAL ILLINOIS

CITY           SKY/WX    TMP DP  RH WIND       PRES   REMARKS
PONTIAC        MOCLDY    55  39  56 E10       29.97F
BLOOMINGTON    MOCLDY    62  51  67 E12       29.95F
DECATUR        CLOUDY    60  49  66 E7        29.92F
PEORIA         PTCLDY    69  47  45 E8        29.92S
LACON*         PTCLDY    60  41  50 E13G20    29.94F
LINCOLN*       MOCLDY    63  45  51 SE3       29.89F
SPRINGFIELD    MOCLDY    67  51  56 E8        29.90F
TAYLORVILLE    CLOUDY    66  50  55 E8        29.90F
$$

ILZ033-039-045-046-055>057-062-063-190400-
EAST-CENTRAL ILLINOIS

CITY           SKY/WX    TMP DP  RH WIND       PRES   REMARKS
CHAMPAIGN      CLOUDY    64  48  56 NE7       29.93F
DANVILLE*      CLOUDY    64  50  59 E6        29.93S
RANTOUL*       CLOUDY    65  51  60 NE9       29.95S
MATTOON        CLOUDY    64  49  57 E6        29.91F
PARIS*         MOCLDY    64  49  57 NE3       29.94F
$$

ILZ079-100>102-190400-
SOUTHWEST ILLINOIS

CITY           SKY/WX    TMP DP  RH WIND       PRES   REMARKS
ALTON          MOCLDY    68  55  64 NE6       29.88S
BELLEVILLE     CLOUDY    70  58  66 E5        29.86S
CAHOKIA*       MOCLDY    71  57  61 S5        29.86S
SPARTA*        CLOUDY    65  58  79 E6        29.88S
$$

ILZ064>066-069>071-074>076-080>082-084>086-088>090-092>094-190400-
SOUTH-CENTRAL ILLINOIS

CITY           SKY/WX    TMP DP  RH WIND       PRES   REMARKS
CARBONDALE     CLOUDY    67  58  72 E5        29.87S
CAIRO*         MOCLDY    66  63  89 CALM      29.85S
EFFINGHAM*     CLOUDY    67  46  46 CALM      29.92S
MARION         CLOUDY    72  57  60 CALM      29.88S
MT. VERNON     CLOUDY    64  54  68 NE6       29.88F
CENTRALIA*     CLOUDY    67  54  63 E3        29.89S
SALEM*         MOCLDY    71  54  56 NE5       29.89F
METROPOLIS*    CLOUDY    66  61  82 CALM      29.85F
$$

ILZ067-068-072-073-078-083-087-091-190400-
SOUTHEAST ILLINOIS

CITY           SKY/WX    TMP DP  RH WIND       PRES   REMARKS
LAWRENCEVILLE  MOCLDY    67  47  48 NE8       29.90F
FLORA*         MOCLDY    66  52  60 NE5       29.91R
FAIRFIELD*     CLOUDY    67  54  61 NE3       29.89R
HARRISBURG*    CLOUDY    69  58  67 CALM      29.89S
ROBINSON*      CLOUDY    63  50  63 CALM      29.92S
CARMI*         MOCLDY    65  53  66 NE5       29.88R
$$

ABBREVIATIONS USED IN REMARKS
   TC - TEMPERATURE IN CELSIUS
  WCI - WIND CHILL INDEX
   HX - HEAT INDEX
  VSB - VISIBILITY
$$



USA.gov is the U.S. government's official web portal to all federal, state and local government web resources and services.